Wind_Speed
25 12 22 21 18 9 14 17 12 14 17 14 10 19 25 25 27 29 29 26 27 40 44 43 48 47 43 43 40 38 32 28 26 23 27 27 28 23 23 19 15 13 12 9
13 25 15 15 17 18 19 20 17 15 18 12 19 23 21 23 17 33 35 31 33 38 38 40 42 46 47 47 43 41 38 32 30 27 24 25 23 23 20 22 18 14 13 10
21 9 19 21 19 21 19 19 19 14 13 10 16 9 14 8 10 19 27 45 42 44 43 43 46 44 45 44 43 42 39 37 34 30 26 22 22 19 21 17 22 18 18 17
23 20 21 24 22 21 18 21 21 21 11 5 11 8 12 17 17 16 33 40 39 42 45 45 50 46 47 47 45 42 40 40 38 34 31 28 29 28 25 21 16 20 21 17
25 24 25 22 24 19 18 11 19 21 15 9 7 6 11 25 23 21 32 43 44 43 50 50 54 53 51 49 49 44 41 39 41 39 35 31 29 28 25 23 22 18 18 16
19 21 20 24 21 21 16 15 17 18 14 13 9 11 7 22 24 25 35 46 51 47 50 52 55 50 51 47 48 46 44 41 41 43 40 36 34 31 29 27 25 21 20 20
20 25 26 24 20 18 19 12 7 9 9 11 10 6 8 10 11 30 34 51 55 54 53 53 49 50 49 49 48 49 46 44 42 42 44 41 36 32 30 28 25 25 24 24
21 22 27 21 22 19 19 20 7 11 6 10 8 8 8 11 2 23 46 59 53 54 55 54 55 55 54 52 50 50 49 47 44 42 42 42 41 36 33 29 30 25 25 23
12 28 11 27 18 22 12 19 11 4 6 2 5 8 12 18 10 8 16 44 51 52 55 54 56 56 58 55 53 53 51 48 45 42 42 42 43 43 38 33 31 30 28 25
13 22 23 20 24 22 19 11 13 9 9 11 9 9 14 13 17 10 12 26 41 50 52 53 56 55 57 56 54 54 52 50 45 42 42 42 42 43 43 38 34 33 30 27
20 6 26 18 23 27 12 12 15 6 6 6 5 11 11 17 21 18 16 23 37 36 51 53 54 56 56 54 53 54 54 51 48 44 41 41 42 41 42 43 38 35 34 29
18 8 7 28 20 15 18 19 11 11 13 4 4 10 5 10 26 22 15 27 34 40 52 53 53 56 57 53 54 53 54 53 50 44 43 42 41 42 42 43 41 38 35 37
15 6 6 12 12 20 21 22 20 6 6 10 8 11 4 11 18 27 17 25 34 35 46 51 51 54 56 54 53 52 52 51 48 48 45 43 41 42 42 41 40 40 38 37
25 12 15 11 13 6 8 20 22 17 8 8 12 6 9 7 9 8 18 18 33 35 45 48 48 54 55 52 52 51 51 50 48 48 48 46 44 43 41 40 39 39 40 39
12 13 14 20 21 15 15 21 22 20 18 13 9 8 9 5 8 8 16 18 25 28 34 45 48 50 55 52 51 51 50 49 48 46 45 45 43 42 41 40 41 41 40 41
18 10 17 10 11 11 11 15 29 21 21 14 10 11 9 9 16 17 23 23 23 24 24 31 35 43 53 54 52 52 51 50 48 47 46 41 40 40 41 40 40 40 39 39
19 12 10 5 6 5 6 11 8 19 19 20 15 9 6 8 11 13 26 22 21 22 21 21 16 13 47 51 52 51 50 47 47 48 47 46 44 41 38 37 38 39 40 39
19 19 4 5 5 2 6 8 10 9 11 5 9 5 16 10 17 24 26 25 20 18 16 16 15 12 8 19 44 49 49 49 46 46 48 47 47 45 42 41 41 38 39 41
16 15 5 3 3 5 7 12 10 4 13 23 18 15 16 29 38 27 31 31 29 26 21 17 16 15 15 7 16 36 40 45 49 46 45 47 48 47 47 46 46 42 41 41
15 12 3 4 3 2 18 28 38 15 9 19 20 22 11 28 12 5 27 27 25 22 19 15 13 12 10 9 7 16 33 34 38 43 44 43 41 41 45 46 46 45 43 42
11 5 7 6 3 5 16 24 23 8 5 17 24 25 24 17 12 24 26 28 24 20 17 10 5 11 14 12 6 5 12 30 34 32 27 29 36 43 42 42 44 45 45 43
7 5 2 4 2 3 21 16 12 6 13 16 21 27 26 28 28 27 28 29 29 22 16 12 7 10 11 13 12 10 8 7 17 25 30 31 30 31 38 41 42 42 43 43
5 4 4 2 4 15 25 11 25 25 20 21 19 18 20 20 22 22 24 25 24 25 19 15 15 13 12 15 14 15 14 16 17 18 24 24 32 29 28 34 41 40 40 42
13 5 4 10 10 18 32 16 27 33 35 33 21 21 18 17 13 16 18 20 19 19 23 17 16 17 14 12 15 18 16 18 20 17 22 22 27 28 27 27 33 36 40 43
9 10 13 11 13 32 22 27 31 35 36 35 33 22 17 18 15 10 13 16 17 16 23 21 20 23 18 17 14 15 16 20 24 23 23 25 28 29 29 28 30 35 36 39
17 11 5 12 32 27 38 46 41 37 38 33 33 30 24 17 16 9 13 16 17 18 20 24 26 25 21 20 21 18 15 17 20 22 22 24 28 30 30 30 30 33 32 34
Wind_Direction
214 218 220 217 233 230 242 244 224 240 225 221 188 153 174 203 190 183 190 209 213 195 199 200 196 201 194 191 197 198 196 204 211 209 204 201 197 197 197 200 212 232 232 239
210 231 220 213 224 236 237 247 258 235 247 196 136 162 187 173 177 187 203 207 219 194 197 196 183 185 191 193 196 201 204 208 211 216 212 210 199 204 207 203 205 228 233 246
212 223 222 210 220 226 235 241 247 252 254 135 134 143 166 194 261 245 184 201 202 190 193 191 189 191 191 195 199 201 204 208 210 216 218 212 209 207 215 214 206 212 234 243
226 231 209 224 219 224 220 237 248 258 262 181 171 161 199 176 210 212 213 202 213 191 191 194 192 195 196 201 205 207 208 210 213 215 216 215 207 203 210 217 218 211 225 237
222 207 230 217 225 220 235 226 242 254 263 268 218 207 202 197 210 199 214 200 210 200 190 191 194 197 200 201 204 209 209 212 211 216 219 219 214 212 210 215 223 228 226 227
235 238 222 234 218 226 225 227 242 245 244 249 240 197 201 199 209 199 207 201 204 203 191 192 196 193 196 202 205 208 209 213 215 214 220 219 219 216 214 214 217 223 231 233
248 228 232 226 232 218 213 219 230 238 228 233 239 212 213 227 196 194 194 192 202 193 189 189 189 190 192 197 204 208 211 214 219 219 218 222 222 221 220 216 213 216 225 228
234 245 216 220 220 222 210 218 201 211 207 230 238 249 255 254 215 198 182 186 190 188 188 187 188 191 191 197 203 210 213 216 219 223 223 221 222 222 223 222 216 217 222 228
247 240 241 225 217 224 209 216 214 250 219 216 194 251 257 262 259 216 202 176 187 187 185 186 187 190 195 196 201 209 215 218 219 222 224 221 220 224 226 226 220 217 218 227
286 257 258 228 220 239 216 175 217 220 208 223 235 218 231 234 246 221 219 196 185 186 183 184 185 188 197 199 203 206 217 220 222 222 224 225 223 223 228 231 226 223 221 220
313 259 256 251 210 218 216 211 201 185 180 188 206 236 223 218 224 217 212 189 187 179 180 181 183 188 198 202 202 207 212 220 223 225 224 225 228 225 227 230 232 228 226 220
301 290 274 242 249 244 213 213 205 202 225 219 194 256 309 319 206 210 203 212 181 186 178 180 181 186 196 202 201 207 212 217 225 228 228 227 230 233 231 229 233 235 230 225
319 341 312 261 249 257 229 196 216 176 147 218 226 261 262 320 189 184 179 194 208 178 173 178 179 183 194 201 204 208 213 218 223 226 229 232 232 233 236 237 233 235 236 231
308 264 230 270 264 227 254 211 203 210 200 206 227 238 289 21 64 133 173 168 187 182 173 177 177 185 194 203 205 209 214 218 222 225 229 231 234 235 235 239 240 235 235 235
298 277 264 265 268 277 276 212 195 207 213 202 222 186 220 157 92 85 118 170 159 187 174 172 180 184 193 200 206 210 215 216 219 225 227 231 234 236 237 237 240 242 238 240
303 282 309 289 285 281 299 292 194 199 211 222 233 225 188 167 123 96 91 92 100 127 136 179 190 188 190 199 209 211 213 216 217 220 227 231 233 235 237 238 239 241 244 240
293 317 323 298 322 296 298 245 272 207 195 211 216 217 161 129 131 129 108 96 95 91 95 100 115 127 200 200 206 206 212 215 217 223 225 229 231 234 237 239 239 241 242 244
274 290 278 280 10 198 256 339 315 236 201 222 231 173 165 143 90 102 116 114 83 73 68 67 70 81 128 190 213 216 214 215 221 224 226 228 231 235 237 237 239 241 243 245
255 269 292 293 337 313 287 1 349 324 45 14 15 355 154 102 73 43 62 73 73 76 70 64 62 60 75 107 196 212 214 217 220 224 229 232 233 235 237 239 239 242 244 245
211 256 296 339 294 210 356 345 335 318 58 12 19 26 37 96 77 32 53 57 59 66 65 58 46 40 43 40 65 203 213 213 216 224 229 233 235 238 239 241 242 243 246 249
189 201 252 259 295 3 343 336 359 55 27 14 15 22 42 66 67 52 54 47 46 48 54 68 63 29 16 358 343 46 197 213 218 225 228 233 238 242 243 242 242 243 245 248
18 292 171 273 32 314 343 1 38 345 63 43 18 26 32 42 41 37 35 38 37 34 39 42 31 350 343 352 331 308 285 215 224 237 241 240 239 240 241 242 242 242 243 246
51 36 339 318 295 306 340 339 320 349 0 3 18 18 22 32 30 25 22 25 27 26 24 33 20 14 354 340 336 310 274 267 269 255 247 248 243 242 238 239 238 239 241 245
348 15 37 340 329 353 327 315 347 340 347 340 336 344 357 8 12 13 13 11 9 16 10 15 9 355 345 337 322 293 284 279 272 271 252 253 245 242 240 237 238 238 240 242
32 14 336 303 321 342 299 304 320 320 328 331 339 329 320 325 335 355 356 349 350 354 359 350 344 346 331 330 319 328 295 279 277 274 262 249 247 243 243 230 232 235 240 243
10 355 322 295 302 290 279 288 294 301 302 306 316 324 333 335 328 344 347 343 338 339 348 339 331 335 323 318 307 301 290 270 269 275 268 244 241 236 235 234 231 229 233 238
Height
1445 1453 1446 1446 1445 1448 1449 1449 1450 1439 1433 1444 1449 1468 1476 1486 1488 1478 1487 1498 1504 1505 1509 1515 1519 1524 1529 1532 1535 1539 1542 1546 1551 1555 1559 1563 1567 1570 1573 1576 1577 1579 1581 1583
1445 1437 1435 1439 1441 1445 1444 1449 1449 1434 1426 1432 1452 1470 1470 1467 1473 1473 1477 1486 1491 1498 1503 1509 1513 1518 1522 1526 1530 1535 1539 1541 1546 1550 1555 1559 1563 1567 1571 1574 1575 1577 1579 1581
1433 1424 1431 1433 1437 1442 1441 1446 1443 1443 1427 1427 1449 1473 1476 1480 1485 1487 1477 1471 1479 1486 1493 1500 1506 1510 1515 1519 1524 1529 1534 1537 1542 1546 1552 1557 1562 1565 1567 1569 1572 1574 1576 1578
1423 1422 1423 1428 1431 1433 1447 1429 1432 1431 1439 1460 1428 1481 1480 1470 1472 1479 1483 1472 1478 1482 1488 1494 1499 1504 1507 1512 1518 1525 1530 1534 1538 1542 1546 1550 1553 1556 1560 1564 1568 1571 1574 1576
1411 1415 1420 1425 1421 1422 1430 1427 1429 1429 1439 1441 1438 1451 1459 1453 1452 1462 1467 1465 1467 1472 1476 1482 1489 1492 1499 1505 1511 1518 1525 1530 1534 1537 1541 1545 1549 1552 1557 1561 1565 1568 1570 1573
1408 1407 1408 1411 1412 1415 1418 1426 1428 1427 1435 1458 1442 1443 1447 1445 1438 1436 1453 1455 1456 1463 1468 1475 1480 1489 1494 1501 1506 1511 1518 1523 1528 1533 1535 1540 1543 1548 1553 1557 1560 1564 1566 1569
1410 1400 1399 1401 1410 1408 1414 1431 1460 1464 1457 1458 1434 1441 1436 1411 1410 1414 1425 1435 1448 1453 1459 1466 1474 1481 1488 1493 1499 1505 1511 1516 1521 1526 1530 1534 1538 1543 1548 1552 1556 1559 1562 1565
1418 1419 1390 1389 1396 1409 1411 1417 1445 1472 1464 1450 1429 1444 1425 1400 1397 1399 1411 1419 1432 1441 1447 1454 1462 1469 1478 1484 1490 1495 1501 1508 1514 1519 1523 1529 1534 1538 1542 1547 1552 1555 1558 1561
1412 1402 1381 1382 1385 1392 1405 1414 1409 1434 1428 1446 1434 1421 1405 1396 1398 1400 1403 1410 1419 1429 1436 1444 1453 1461 1468 1476 1482 1487 1493 1499 1505 1510 1516 1522 1527 1531 1536 1541 1547 1551 1554 1558
1406 1409 1381 1374 1380 1377 1384 1393 1424 1419 1459 1460 1436 1431 1418 1404 1396 1397 1399 1402 1407 1416 1426 1436 1444 1453 1461 1467 1472 1480 1485 1491 1498 1504 1510 1515 1521 1526 1530 1535 1541 1545 1549 1553
1428 1408 1380 1378 1371 1377 1386 1395 1395 1412 1429 1455 1458 1423 1386 1390 1383 1387 1388 1393 1400 1408 1418 1428 1437 1445 1452 1459 1467 1473 1479 1486 1492 1498 1504 1509 1513 1519 1525 1529 1534 1539 1544 1548
1435 1423 1398 1375 1361 1361 1369 1380 1391 1411 1430 1424 1431 1414 1368 1363 1363 1371 1378 1384 1392 1401 1411 1421 1430 1438 1446 1453 1461 1467 1473 1478 1484 1491 1497 1503 1508 1513 1517 1523 1527 1532 1537 1542
1445 1429 1415 1381 1375 1365 1368 1365 1373 1390 1402 1424 1432 1411 1369 1361 1350 1360 1371 1378 1386 1394 1405 1415 1424 1432 1439 1446 1453 1459 1465 1470 1478 1485 1492 1497 1502 1506 1509 1514 1521 1525 1529 1534
1449 1427 1429 1414 1384 1369 1376 1362 1366 1382 1406 1410 1404 1396 1385 1369 1363 1363 1368 1375 1382 1388 1399 1410 1419 1425 1433 1438 1444 1452 1459 1466 1471 1478 1483 1489 1493 1498 1504 1508 1512 1517 1521 1526
1450 1425 1408 1393 1376 1367 1365 1356 1361 1373 1381 1398 1394 1394 1385 1372 1369 1368 1369 1376 1381 1389 1395 1404 1412 1419 1426 1432 1437 1443 1450 1458 1464 1469 1475 1479 1485 1491 1496 1500 1504 1508 1514 1517
1441 1425 1403 1382 1366 1362 1365 1352 1346 1358 1367 1377 1378 1379 1368 1366 1369 1372 1377 1380 1384 1390 1395 1402 1408 1414 1419 1425 1430 1436 1443 1450 1457 1463 1466 1472 1477 1482 1486 1491 1496 1500 1503 1508
1449 1425 1414 1394 1369 1367 1382 1361 1357 1352 1355 1365 1382 1368 1366 1368 1370 1372 1378 1385 1390 1394 1399 1404 1409 1414 1418 1423 1428 1434 1440 1446 1452 1454 1459 1465 1469 1474 1479 1484 1489 1492 1495 1500
1445 1428 1415 1405 1379 1397 1364 1349 1351 1350 1350 1357 1360 1359 1361 1366 1373 1377 1379 1382 1391 1396 1400 1404 1409 1414 1417 1422 1426 1430 1436 1442 1446 1450 1453 1459 1463 1467 1473 1478 1480 1484 1488 1490
1430 1422 1420 1411 1391 1375 1360 1366 1367 1360 1388 1384 1375 1363 1358 1367 1370 1387 1388 1388 1391 1395 1399 1403 1407 1412 1416 1420 1425 1428 1432 1437 1442 1446 1449 1453 1456 1460 1464 1468 1472 1476 1480 1483
1417 1413 1419 1406 1407 1393 1402 1372 1361 1354 1404 1396 1387 1377 1367 1364 1393 1401 1396 1393 1392 1394 1397 1401 1406 1412 1417 1421 1422 1425 1429 1432 1435 1439 1443 1448 1452 1454 1456 1460 1464 1469 1472 1475
1414 1415 1420 1412 1409 1412 1405 1388 1366 1385 1426 1406 1400 1396 1389 1389 1400 1402 1399 1397 1396 1397 1399 1402 1406 1411 1417 1421 1423 1424 1427 1430 1433 1436 1440 1444 1446 1448 1450 1454 1458 1461 1465 1468
1431 1430 1420 1414 1418 1426 1412 1402 1409 1416 1410 1409 1406 1404 1400 1401 1402 1403 1403 1403 1402 1402 1403 1404 1406 1409 1413 1419 1421 1421 1425 1427 1430 1433 1436 1439 1442 1444 1445 1448 1451 1454 1458 1461
1447 1448 1452 1445 1447 1437 1426 1421 1416 1414 1414 1412 1411 1409 1407 1407 1407 1407 1407 1407 1408 1408 1408 1409 1410 1410 1411 1413 1418 1422 1424 1425 1426 1428 1430 1431 1435 1438 1440 1441 1444 1447 1450 1452
1440 1440 1445 1442 1428 1431 1427 1420 1419 1418 1416 1414 1412 1411 1411 1410 1411 1411 1411 1412 1411 1411 1411 1410 1412 1413 1413 1414 1414 1413 1417 1421 1422 1424 1424 1425 1428 1430 1433 1436 1438 1440 1441 1443
1454 1450 1452 1442 1433 1434 1422 1419 1422 1419 1416 1415 1411 1409 1409 1410 1411 1411 1412 1412 1412 1411 1409 1408 1411 1413 1414 1414 1415 1416 1414 1413 1414 1416 1417 1419 1421 1424 1426 1429 1431 1432 1435 1436
1460 1463 1461 1447 1444 1445 1427 1416 1416 1416 1413 1413 1413 1409 1408 1408 1408 1408 1409 1410 1410 1408 1407 1407 1408 1412 1412 1412 1413 1413 1413 1412 1411 1411 1411 1412 1414 1416 1417 1420 1423 1426 1428 1429